{"data":{"norad_id":57998,"intl_designator":"2023-153H","name":"STARLINK-30531","alt_names":[],"object_type":"PAYLOAD","status":"ACTIVE","operator":null,"country":"US","launch_date":"2023-10-05","launch_site_code":"AFETR","launch_vehicle":null,"mission":null,"orbit_class":"UNKNOWN","rcs_meters":null,"size_class":null,"mass_kg":null,"dimensions":null,"purposes":["comms"],"wikipedia_slug":null,"has_3d_model":false,"image_url":null,"decayed_at":null,"tle_current":{"epoch":"2026-09-19T17:30:47.202336Z","epoch_age_seconds":204250,"freshness":"STALE","line1":"1 57998U 23153H   26262.72971299  .00001940  00000+0  80072-4 0  9990","line2":"2 57998  43.0046  51.1042 0001090 260.5009  99.5720 15.27552412164571","mean_motion":15.27552412,"eccentricity":0.000109,"inclination_deg":43.0046,"raan_deg":51.1042,"arg_perigee_deg":260.5009,"mean_anomaly_deg":99.572,"bstar":8.0072e-5,"rev_number":16457,"period_min":94.26845119603,"perigee_km":482.38382739074,"apogee_km":483.87958396857,"semimajor_km":6861.2687056797,"source":"CELESTRAK","updated_at":"2026-09-21T09:00:33.754423Z"}}}